Other Public Products
Issued by NWS Charleston, SC

Home | Current Version | Previous Version | Text Only | Print | Product List | Glossary On
Versions: 1 2 3 4 5 6 7 8 9 10 11 12 13 14 15 16 17 18 19 20 21 22 23 24 25 26 27 28 29 30 31 32 33 34 35 36 37 38 39 40 41 42 43 44 45 46 47 48 49 50
720
FPUS82 KCHS 210127
OPUCHS

TEST...KCHS/KSAV Gateway Observations...TEST
National Weather Service Charleston SC
800 PM EST TUE FEB 20 2018

NOTE: "fair" indicates few or no clouds below 12,000 feet with no
significant weather and/or obstructions to visibility.

SCZ050-WAZ558-NCZ071-TXZ119-213-PAZ071-DCZ001-FLZ074-172-MI076-
NYZ176-178-MAZ016-IL014-TNZ027-NJZ106-GAZ044-MD014-210200-

...Gateway Observations for Charleston International...

CITY           SKY/WX    TMP DP  RH WIND       PRES   REMARKS
Chas Airport   FAIR      68  65  90 SE6       30.43R
Seattle        FLURRIES  34  27  75 N13       30.19R WCI  25
Charlotte      MOCLDY    66  61  84 N5        30.41S
Dallas DFW     LGT RAIN  44  41  89 N20       29.99R
Dallas Love    HVY RAIN  44  42  93 N15G21    30.03R FOG
Philladelphia  MOCLDY    63  57  81 SW10      30.33S
Wash National  MOCLDY    69  55  60 S13       30.33R
Baltimore      FAIR      61  58  90 SE7       30.32R
Miami          MOCLDY    77  71  82 E15       30.31R
Detroit        MOCLDY    60  55  83 S14       29.97F
Newark         MOCLDY    63  54  72 CALM      30.31R
Laguardia      MOCLDY    59  50  72 S6        30.31S
J F K          MOCLDY    48  47  96 S3        30.33S
Boston Logan   MOCLDY    45  42  89 E9        30.26R
Ft. Lauderdale MOCLDY    77  73  87 E21       30.31R
Chicago O`Hare LGT RAIN  38  35  89 W10       30.05R WCI  31
Chicago Midway LGT RAIN  41  40  96 W14       30.05R
Houston Bush   CLOUDY    76  69  79 S13G21    30.00R
Houston Hobby  CLOUDY    74  72  93 S14G21    30.01R
Nashville      FAIR      71  60  68 S10       30.18S
Atlanta        MOCLDY    70  63  78 SE7       30.34S

$$

GAZ044-118-TXZ119-213-NCZ071-DCZ001-MDZ014-506-PAZ021-071-NJZ106-
NYZ176-178-MAZ106-OHZ011-021-055-MIZ076-KYZ091-ILZ014-INZ047-
MNZ060-ONZ431-210200-

...Gateway Observations for Savannah International...

CITY           SKY/WX    TMP DP  RH WIND       PRES   REMARKS
Savannah Arpt  FAIR      70  67  90 SE9       30.40R
Atlanta        MOCLDY    70  63  78 SE7       30.34S
Charlotte      MOCLDY    66  61  84 N5        30.41S
Dallas DFW     LGT RAIN  44  41  89 N20       29.99R
Houston Bush   CLOUDY    76  69  79 S13G21    30.00R
Wash National  MOCLDY    69  55  60 S13       30.33R
Wash Dulles    MOCLDY    68  55  63 S14       30.31R
Baltimore      FAIR      61  58  90 SE7       30.32R
Philadelphia   MOCLDY    63  57  81 SW10      30.33S
Newark         MOCLDY    63  54  72 CALM      30.31R
Laguardia      MOCLDY    59  50  72 S6        30.31S
J F K          MOCLDY    48  47  96 S3        30.33S
Boston         MOCLDY    45  42  89 E9        30.26R
Pittsburg      CLOUDY    69  51  52 S3        30.18F
Akron          FAIR      68  51  54 S13       30.14S
Cleveland      CLOUDY    71  54  54 S14       30.09F
Cincinnati     MOCLDY    72  56  57 S10       30.13R
Columbus       FAIR      66  54  64 S9        30.14S
Detroit        MOCLDY    60  55  83 S14       29.97F
Chicago O`Hare LGT RAIN  38  35  89 W10       30.05R WCI  31
Minneapolis    FAIR      15   7  70 W14       30.19R WCI   0
Indianapolis   CLOUDY    71  53  52 S21G36    30.04S
Toronto Canada NOT AVBL

$$




USA.gov is the U.S. government's official web portal to all federal, state and local government web resources and services.